Regional Weather Roundup
Issued by NWS Green Bay, WI

Home | Current Version | Previous Version | Text Only | Print | Product List | Glossary On
Versions: 1 2 3 4 5 6 7 8 9 10 11 12 13 14 15 16 17 18 19 20 21 22 23 24 25 26 27 28 29 30 31 32 33 34 35 36 37 38 39 40 41 42 43 44 45 46 47 48 49 50
000
ASUS43 KGRB 162010
RWRGRB

NORTH-CENTRAL AND NORTHEAST WISCONSIN REGIONAL WEATHER ROUNDUP
NATIONAL WEATHER SERVICE GREEN BAY WI
300 PM CDT TUE SEP 16 2014

WIZ005-009-010>012-018-019-162100-
NORTH CENTRAL WISCONSIN

CITY           SKY/WX    TMP DP  RH WIND       PRES   REMARKS
IRONWOOD       MOSUNNY   66  43  42 SW15G22   29.99F
MANITOWISH WTR MOSUNNY   64  40  41 W16G22    30.05S
ARBOR VITAE    SUNNY     64  40  40 W8G16     30.05F
EAGLE RIVER    SUNNY     65  37  35 W14G21    30.04F
LAND O LAKES   SUNNY     66  39  36 SW10G16   30.04F
RHINELANDER    MOSUNNY   65  41  41 W12       30.07F
PHILLIPS       MOSUNNY   64  43  46 SW9G17    30.07F
ANTIGO         PTSUNNY   63  43  47 W15       30.08F
TOMAHAWK       MOSUNNY   63  40  42 W6        30.08F
MERRILL        PTSUNNY   65  42  44 W13G18    30.08F
$$

WIZ013-073-162100-
NORTHEAST WISCONSIN

CITY           SKY/WX    TMP DP  RH WIND       PRES   REMARKS
IRON MOUNTAIN  SUNNY     67  39  35 W10G22    30.01F
MARINETTE      SUNNY     66  43  42 W9G20     30.04S
OCONTO         SUNNY     66  43  42 W14       30.06F
$$

WIZ017-030-035>037-045-162100-
CENTRAL WISCONSIN

CITY           SKY/WX    TMP DP  RH WIND       PRES   REMARKS
MEDFORD        SUNNY     63  41  45 W12       30.10S
WAUSAU         SUNNY     64  42  44 W13       30.08F
MOSINEE        MOSUNNY   63  45  51 W12G17    30.11F
MARSHFIELD     SUNNY     65  42  43 W10       30.10F
WISC RAPIDS    SUNNY     65  41  41 SW8       30.12F
STEVENS POINT  SUNNY     62  40  45 W8        30.10F
WAUPACA        SUNNY     67  42  41 SW7       30.10F
SHAWANO        MOSUNNY   67  42  39 W7        30.08F
CLINTONVILLE   MOSUNNY   64  41  42 W12       30.08F
$$

WIZ038-039-048-051-162100-
FOX VALLEY

CITY           SKY/WX    TMP DP  RH WIND       PRES   REMARKS
NWS GREEN BAY  SUNNY     65  44  46 W8G17     30.09F
APPLETON       MOSUNNY   64  39  39 SW9       30.11F
OSHKOSH        SUNNY     63  41  44 CALM      30.11F
FOND DU LAC    SUNNY     63  41  44 VRB7      30.12F
$$

WIZ022-050-052-162100-
EAST CENTRAL WISCONSIN

CITY           SKY/WX    TMP DP  RH WIND       PRES   REMARKS
STURGEON BAY   SUNNY     63  43  48 SW16      30.07F
MANITOWOC      SUNNY     63  42  46 W10G16    30.10F
SHEBOYGAN      SUNNY     64  38  38 VRB5      30.11F
$$

LMZ563-521-522-541>543-162100-
LAKESHORE

STATION/POSITION TIME  TEMP    WIND        PRES    VSBY  WAVE
                       AIR SEA DIR/SP/G                  HT/PER
                 (UTC) (F)     (DEG/KT/KT) (MB)    (MI)  (FT/S)
SHEBOYGAN LKSHOR 2000   58 48  140/  5/  6 1020.0F
KEWAUNEE LKSHORE 2000   63     210/ 11/ 13 1018.0S
NORTHPORT PIER   2000   64     220/  5/ 13 1017.3F
N MID LAKE BUOY  2000   57 58  210/ 17/ 21 1017.4F         2/ 4
S GREEN BAY BUOY 1900   61     VRB 12/ 14  1019.6F
CHAMBERS ISLAND  2000   62     180/  7/ 14 1017.6S
MENOMINEE LKSHOR 2000   64     220/ 13/ 17 1018.0F
$$



USA.gov is the U.S. government's official web portal to all federal, state and local government web resources and services.